{"data":{"norad_id":57968,"epoch":"2026-09-20T11:00:58.909824Z","epoch_age_seconds":141025,"freshness":"FRESH","line1":"1 57968U 23151E   26263.45901516 -.00003041  00000+0 -10107-3 0  9998","line2":"2 57968  43.0016 316.0669 0001544 275.7864  84.2811 15.27565531165551","mean_motion":15.27565531,"eccentricity":0.0001544,"inclination_deg":43.0016,"raan_deg":316.0669,"arg_perigee_deg":275.7864,"mean_anomaly_deg":84.2811,"bstar":-0.00010107,"rev_number":16555,"period_min":94.267641602081,"perigee_km":482.03304795011,"apogee_km":484.15179559555,"semimajor_km":6861.2294217728,"source":"CELESTRAK","updated_at":"2026-09-21T09:00:33.749317Z"}}